Alcoa, TN

3:53 PM EDT on August 28, 2016 (GMT -0400)
McGhee Tyson

Weather History for KTYS - October, 2013

Change the Weather History Date:

Wednesday, October 2, 2013

  Actual Average Record
Temperature  
Mean Temperature 71 °F 65 °F  
Max Temperature 82 °F 76 °F 93 °F (1884)
Min Temperature 59 °F 54 °F 36 °F (1946)
Degree Days  
Heating Degree Days 0 3  
Month to date heating degree days 0 6  
Since 1 July heating degree days 1 29  
Cooling Degree Days 6 3  
Month to date cooling degree days 9 6  
Year to date cooling degree days 1394 1493  
Growing Degree Days 20 (Base 50)    
Moisture  
Dew Point 62 °F    
Average Humidity 74    
Maximum Humidity 97    
Minimum Humidity 51    
Precipitation  
Precipitation 0.00 in 0.08 in 0.69 in (2015)
Month to date precipitation 0.00 0.17  
Year to date precipitation 55.80 37.01  
Snow  
Snow 0.00 in 0.00 in - ()
Month to date snowfall 0.0 0.0  
Since 1 July snowfall 0.0 0.0  
Since 1 September snowfall 0.0 0.0  
Snow Depth 0.00 in    
Sea Level Pressure  
Sea Level Pressure 30.11 in    
Wind  
Wind Speed 1 mph (North)    
Max Wind Speed 7 mph    
Max Gust Speed 10 mph    
Visibility 10 miles    
Events      
T = Trace of Precipitation, MM = Missing Value Source: NWS Daily Summary

Daily Weather History Graph

Daily Weather History Graph

Search for Another Location

Airport or City:

Trip Planner

Search our weather history database for the weather conditions in past years. The results will help you decide how hot, cold, wet, or windy it might be!

Date:

Astronomy

Oct. 02, 2013 Rise Set
Actual Time 7:31 AM EDT 7:17 PM EDT
Civil Twilight 7:06 AM EDT 7:43 PM EDT
Nautical Twilight 6:36 AM EDT 8:12 PM EDT
Astronomical Twilight 6:06 AM EDT 8:42 PM EDT
Moon 5:07 AM EDT (10/2) 5:50 PM EDT (10/2)
Length of Visible Light 12h 36m
Length of Day
11h 45m
Waning Crescent, 6% of the Moon is Illuminated
Oct 2
Waning Crescent
Oct 4
New
Oct 11
First Quarter
Oct 18
Full
Oct 26
Last Quarter

Hourly Weather History & Observations

Time (EDT) Temp. Heat Index Dew Point Humidity Pressure Visibility Wind Dir Wind Speed Gust Speed Precip Events Conditions
12:53 AM 62.1 °F - 60.1 °F 93% 30.12 in 10.0 mi Calm Calm - N/A   Clear
1:53 AM 61.0 °F - 59.0 °F 93% 30.11 in 10.0 mi Calm Calm - N/A   Mostly Cloudy
2:53 AM 61.0 °F - 59.0 °F 93% 30.10 in 10.0 mi Calm Calm - N/A   Mostly Cloudy
3:53 AM 62.1 °F - 59.0 °F 90% 30.10 in 10.0 mi Calm Calm - N/A   Mostly Cloudy
4:53 AM 62.1 °F - 60.1 °F 93% 30.11 in 10.0 mi Calm Calm - N/A   Overcast
5:53 AM 61.0 °F - 59.0 °F 93% 30.12 in 10.0 mi Calm Calm - N/A   Scattered Clouds
6:53 AM 60.1 °F - 59.0 °F 96% 30.13 in 10.0 mi Calm Calm - N/A   Overcast
7:53 AM 59.0 °F - 57.9 °F 96% 30.15 in 9.0 mi East 4.6 mph - N/A   Scattered Clouds
8:53 AM 62.1 °F - 60.1 °F 93% 30.17 in 10.0 mi Calm Calm - N/A   Scattered Clouds
9:53 AM 66.9 °F - 61.0 °F 81% 30.17 in 10.0 mi Calm Calm - N/A   Scattered Clouds
10:53 AM 72.0 °F - 62.1 °F 71% 30.17 in 10.0 mi Calm Calm - N/A   Scattered Clouds
11:53 AM 75.9 °F - 62.1 °F 62% 30.15 in 10.0 mi Calm Calm - N/A   Scattered Clouds
12:53 PM 78.1 °F - 62.1 °F 58% 30.13 in 10.0 mi Calm Calm - N/A   Mostly Cloudy
1:53 PM 79.0 °F - 63.0 °F 58% 30.11 in 10.0 mi Calm Calm - N/A   Mostly Cloudy
2:53 PM 80.1 °F 81.2 °F 62.1 °F 54% 30.09 in 10.0 mi Calm Calm - N/A   Mostly Cloudy
3:53 PM 80.1 °F 81.5 °F 63.0 °F 56% 30.07 in 10.0 mi Calm Calm - N/A   Overcast
4:53 PM 82.0 °F 83.0 °F 62.1 °F 51% 30.06 in 10.0 mi NNW 3.5 mph - N/A   Mostly Cloudy
5:53 PM 79.0 °F - 64.0 °F 60% 30.06 in 10.0 mi Calm Calm - N/A   Overcast
6:53 PM 75.9 °F - 64.9 °F 69% 30.06 in 10.0 mi North 3.5 mph - N/A   Overcast
7:53 PM 73.0 °F - 66.0 °F 79% 30.06 in 10.0 mi Calm Calm - N/A   Mostly Cloudy
8:53 PM 72.0 °F - 66.0 °F 81% 30.07 in 10.0 mi Calm Calm - N/A   Mostly Cloudy
9:53 PM 68.0 °F - 64.9 °F 90% 30.09 in 10.0 mi Calm Calm - N/A   Mostly Cloudy
11:53 PM 66.9 °F - 64.0 °F 90% 30.10 in 9.0 mi Calm Calm - N/A   Mostly Cloudy